HADES-ICM

Last updated on Mon Nov 03 2025 00:03:22 GMT+0000 (Coordinated Universal Time)

1 63492U 25052BN 25306.44552296 .00048478 00000+0 14921-2 0 9990 2 63492 97.4113 199.6762 0006939 202.4828 157.6112 15.33472059 35510
UTC large
Height (km)
Speed (km/s)
/
Latitude / Longitude
Inclination (degrees)
Orbital Period (minutes)
Azimuth
Elevation
Range (km)
Doppler Factor

Next 0 passes for location: London (51.5072 / 0.1276)

Sorry there are no passes over London.